Home   Weather   Marigot   Past weeks

Past Weather in Marigot, Saint Martin — Yesterday and Last 2 Weeks

Now
82 °F

Partly sunny.


Feels Like: 87 °F
Forecast: 78 / 82 °F
Wind: 13 mph from East

Location: Juliana Airport - Saint Maarten

Current Time: Apr 28, 2017 at 4:04:48 pm

Latest Report: Apr 28, 2017 at 3:00 pm


Visibility: N/A

Pressure: 30.01 "Hg

Humidity: 70%

Dew Point: 72 °F

Location of MarigotLocation

Past Weather in Marigot — Graph

°F

Marigot Temperature Yesterday

Maximum temperature yesterday: 84 °F (at 1:00 pm)
Minimum temperature yesterday: 77 °F (at 3:00 am)
Average temperature yesterday: 81 °F

High & Low Weather Summary for the Past Weeks

 TemperatureHumidityPressure
High84 °F (Apr 13, 3:00 pm)100% (Apr 15, 1:00 pm)30.07 "Hg (Apr 15, 1:00 pm)
Low75 °F (Apr 15, 1:00 pm)51% (Apr 19, 3:00 pm)29.89 "Hg (Apr 13, 3:00 pm)
Average79 °F75%29.99 "Hg
* Reported Apr 13 2:00 pm — Apr 28 2:00 pm, Marigot, Weather by CustomWeather, © 2017

Note: Actual official high and low records may vary slightly from our data, if they occured in-between our weather recording intervals... More about our weather records

Advertising

Marigot Weather History for the Previous 24 Hours

Scroll right to see more
 ConditionsComfort  
Time TempWeatherWind HumidityBarometerVisibility
2:00 pm
Fri, Apr 28
82 °FScattered clouds.13 mph74%30.04 "HgN/A
1:00 pm84 °FScattered clouds.14 mph66%30.04 "HgN/A
12:00 pm84 °FScattered clouds.16 mph66%30.07 "HgN/A
11:00 am82 °FScattered clouds.16 mph74%30.07 "HgN/A
10:00 am82 °FScattered clouds.14 mph70%30.07 "HgN/A
9:00 am79 °FSprinkles. Partly sunny.17 mph84%30.07 "HgN/A
8:00 am81 °FScattered showers. Partly sunny.15 mph79%30.04 "HgN/A
7:00 am79 °FPassing clouds.13 mph84%30.04 "HgN/A
6:00 am79 °FPassing clouds.15 mph84%30.01 "HgN/A
5:00 am79 °FPassing clouds.13 mph84%30.01 "HgN/A
4:00 am79 °FPassing clouds.13 mph84%29.98 "HgN/A
3:00 am77 °FSprinkles. Passing clouds.14 mph89%29.98 "HgN/A
2:00 am79 °FPassing clouds.12 mph84%30.01 "HgN/A
1:00 am79 °FPassing clouds.10 mph84%30.01 "HgN/A
12:00 am79 °FPassing clouds.13 mph84%30.04 "HgN/A
11:00 pm
Thu, Apr 27
79 °FPassing clouds.13 mph84%30.04 "HgN/A
10:00 pm81 °FSprinkles. Passing clouds.8 mph79%30.04 "HgN/A
9:00 pm81 °FPassing clouds.12 mph79%30.04 "HgN/A
8:00 pm81 °FPassing clouds.14 mph79%30.01 "HgN/A
7:00 pm81 °FPassing clouds.14 mph79%30.01 "HgN/A
6:00 pm81 °FPartly sunny.10 mph79%29.98 "HgN/A
5:00 pm82 °FPartly sunny.13 mph74%29.98 "HgN/A
4:00 pm82 °FScattered clouds.13 mph74%29.98 "HgN/A
Weather by CustomWeather, © 2017

See weather overviewHow to use our weather pages